CZ-2F R/B

Last updated on Nov. 25, 2020, 12:02 a.m. UTC

1 46390U 20063B   20328.92140499  .00041407  00000-0  20822-3 0  9999
2 46390  50.2046 356.2521 0013354 295.9357  64.0248 15.81093482 12740

Satellite is not in orbit.